Retour au catalogue

STARLINK-4348

ActifCommunicationsSSO
NORAD 53075·PAYLOAD·🇺🇸 United States

Lancé Jul 11, 2022 depuis Vandenberg Space Force Base

Loading…

Prochains Passages (prochaines 24 heures)

TLE

FraisSource: CelesTrak SupGP

Époque: Sep 14, 2026, 21:39 UTC

1 53075C 22077AJ  26257.90256944  .00062912  00000+0  19527-2 0  2571
2 53075  97.2854  72.7765 0001543  93.5997 334.8547 15.33410711    17

Suivez STARLINK-4348 en temps réel avec AllMySat

Download on the App Store